Regional Weather Roundup
Issued by NWS

Home | Current Version | Previous Version | Text Only | Print | Product List | Glossary On
Versions: 1 2 3 4 5 6 7 8 9 10 11 12 13 14 15 16 17 18 19 20 21 22 23 24 25 26 27 28 29 30 31 32 33 34 35 36 37 38 39 40 41 42 43 44 45 46 47 48 49 50
000
ASCA44 KEWX 281320
RWRMX

LATIN AMERICA AND CARIBBEAN REGIONAL WEATHER ROUNDUP
NATIONAL WEATHER SERVICE AUSTIN/SAN ANTONIO TX
800 AM CDT FRI AUG 28 2015

NOTE: "FAIR" INDICATED FEW OR NO CLOUDS BELOW 12,000 FEET WITH NO
SIGNIFICANT WEATHER AND/OR OBSTRUCTIONS TO VISIBILITY.

BAJA CALIFORNIA

CITY           SKY/WX    TMP DP  RH WIND       PRES   REMARKS
LORETO         PTCLDY    90  79  70 CALM      29.78  HX 105
TIJUANA        CLEAR     72  61  68 CALM      29.91R

NORTHWESTERN MEXICO

CITY           SKY/WX    TMP DP  RH WIND       PRES   REMARKS
DURANGO        CLEAR     48  43  81 CALM      30.27
CD. JUAREZ     MOCLDY    75  55  50 W6        30.02S

NORTHEASTERN MEXICO

CITY           SKY/WX    TMP DP  RH WIND       PRES   REMARKS
CHIHUAHUA      MOCLDY    63  45  51 S5        30.16R
MATAMOROS      MOSUNNY   72  70  94 CALM      29.99S
MONCLOVA       PTCLDY    79  57  47 CALM      30.00
MONTERREY      CLEAR     66  61  82 NW3       30.01R
NUEVO LAREDO   CLEAR     72  63  73 SE6       29.99R
PIEDRAS NEGRAS PTCLDY    72  57  60 CALM      30.00
REYNOSA        PTCLDY    70  66  88 NW2       29.97R HAZE
SALTILLO       CLEAR     59  46  63 S7        30.23R
TORREON        PTCLDY    72  50  46 CALM      30.12R
CD. VICTORIA   CLEAR     70  70 100 W3        29.99R

WESTERN MEXICO

CITY           SKY/WX    TMP DP  RH WIND       PRES   REMARKS
AGUASCALIENTES CLEAR     54  50  87 N7        30.29R
GUADALAJARA    CLEAR     57  55  94 CALM      30.19R
MAZATLAN       MOCLDY    75  73  94 SE10      29.84S
P. VALLARTA    CLOUDY    77  75  94 NE2       29.87R
ZACATECAS        N/A    N/A N/A N/A MISG        N/A

CENTRAL MEXICO

CITY           SKY/WX    TMP DP  RH WIND       PRES   REMARKS
CUERNAVACA     MOCLDY    64  63  94 CALM      30.13S
MEXICO CITY    CLOUDY    59  50  72 NW7       30.32S
POZA RICA      PTSUNNY   75  72  88 CALM      29.98R
PUEBLA         PTCLDY    50  48  93 NW6       30.31R WCI  48
QUERETARO      PTCLDY    54  50  87 CALM      30.32R
S. LUIS POTOSI CLEAR     52  50  93 CALM      30.25F FOG
TAMPICO        PTCLDY    77  72  83 NW9       29.94S
TOLUCA         MOCLDY    50  46  87 W7        30.38R FOG     WCI  47

SOUTHERN MEXICO

CITY           SKY/WX    TMP DP  RH WIND       PRES   REMARKS
ACAPULCO       MOCLDY    81  73  78 NW6       29.84S
B. DE HUATULCO CLOUDY    75  70  83 CALM      29.92R
OAXACA         MOSUNNY   61  57  88 N2        30.19S
P. ESCONDIDO   MOCLDY    77  73  88 NE9       29.93S
VERACRUZ       PTSUNNY   73  73 100 SE2       29.94R
ZIHUATANEJO    MOCLDY    79  73  83 CALM      29.85R

YUCATAN PENINSULA

CITY           SKY/WX    TMP DP  RH WIND       PRES   REMARKS
CAMPECHE       PTSUNNY   75  73  94 CALM      29.89S
CANCUN         PTSUNNY   77  77 100 N2        29.95
CHETUMAL       CLOUDY    77  77 100 CALM      29.90S
CD. DEL CARMEN PTSUNNY   77  73  88 CALM      29.90R
COZUMEL        PTSUNNY   75  75 100 CALM      29.94R
MERIDA         CLOUDY    77  75  94 CALM      29.96R
MINATITLAN     PTSUNNY   75  70  83 CALM      29.87S
TAPACHULA      PTSUNNY   75  73  94 CALM      29.84R
TUX. GUTIERREZ FOG       70  70 100 CALM      29.96R VSB 3/4
VILLAHERMOSA   CLOUDY    75  75 100 CALM      29.92R FOG

CENTRAL AMERICA

CITY           SKY/WX    TMP DP  RH WIND       PRES   REMARKS
BELIZE CITY    MOSUNNY   77  77 100 W3        29.91R
MANAGUA        MOSUNNY   82  73  74 E9        29.83S

CARIBBEAN

CITY           SKY/WX    TMP DP  RH WIND       PRES   REMARKS
ARUBA          MOSUNNY   88  77  70 E15       29.83S HX 100
CURACAO        MOSUNNY   88  77  70 SE14      29.89S HX 100
KINGSTON       MOSUNNY   86  75  70 N3        29.89S HX  95
SAN JUAN       MOSUNNY   82  70  65 E12G20    29.99R
SANTO DOMINGO  PTSUNNY   81  77  89 NE14      29.86S
ST. CROIX      MOSUNNY   82  79  89 E15G24    30.01S HX  93
ST. KITTS      MOSUNNY   82  79  89 E15       30.03R HX  93
ST. MAARTEN    MOSUNNY   84  77  79 E12       30.03R HX  94
ST. THOMAS     MOSUNNY   88  79  74 SE20G26   30.00R HX 102

$$




USA.gov is the U.S. government's official web portal to all federal, state and local government web resources and services.